Location: Katowice
(50.2611°N, 19.0242°E)
Time: 04:37:28
(UTC+02:00)

deb Explorer IX - Visible Passes

Search period start: 17 July 2019 00:00
Search period end: 27 July 2019 00:00
Orbit: 539 x 1112 km, 38.8° (Epoch: 15 July)

Date Brightness Start Highest point End Pass type
(mag) Time Alt. Az. Time Alt. Az. Time Alt. Az.
19 Jul ? 03:53:31 10° SSE 03:53:41 10° SSE 03:53:51 10° SSE visible
20 Jul ? 03:31:11 10° S 03:31:50 10° SSE 03:32:28 10° SSE visible
21 Jul ? 03:09:32 11° SSE 03:09:58 11° SSE 03:10:54 10° SSE visible
22 Jul ? 02:48:38 11° SSE 02:48:38 11° SSE 02:49:20 10° SE visible
23 Jul ? 04:09:24 10° SW 04:12:05 17° S 04:14:44 10° SE visible
24 Jul ? 03:48:14 13° SSW 03:50:14 17° S 03:52:54 10° SE visible
25 Jul ? 03:27:26 16° SSW 03:28:22 17° S 03:31:07 10° SE visible
26 Jul ? 03:06:42 18° S 03:06:42 18° S 03:09:21 10° SE visible
